contact:dominique.lefevre@mio.osupytheas.fr, maurice.libes@osupytheas.fr, didier.mallarino@osupytheas.fr
Project:EMSO http://www.emso-fr.org/EMSO-France
Depth: 2436.0 m
Title:EMSO Ligure Ouest : Data MII capteur AQUADOPP
Date,Latitude,Longitude,X_East,Y_North,Z_Up,Amplitude_X,Amplitude_Y,Amplitude_Z,Batterie,SoundSpeed,Heading,Pitch,Roll,Pressure,TIS,Speed,Direction
, degrees North, degrees East, m.s-1, m.s-1,m.s-1, 1, 1, 1, Volt, m.s-1, degree, degree, degree, dbar, degree_C, m.s-1, degree
2021-12-30T00:04:03,42.805,6.029,0.005,-0.033,-0.026,101.0,100.0,101.0,13.3,1505.2,325.2,-0.8,1.8,2470.381,13.28,0.033,171.4
2021-12-30T00:07:03,42.805,6.029,0.029,-0.015,-0.016,101.0,100.0,101.0,13.4,1505.2,324.9,-0.8,1.8,2470.366,13.28,0.032,117.4
2021-12-30T00:10:03,42.805,6.029,0.02,-0.027,-0.048,99.0,103.0,101.0,13.4,1505.2,324.5,-0.7,1.8,2470.336,13.28,0.033,143.5
2021-12-30T00:13:03,42.805,6.029,0.042,-0.033,-0.005,100.0,102.0,100.0,13.4,1505.2,324.5,-0.8,1.8,2470.279,13.28,0.053,128.2
2021-12-30T00:16:03,42.805,6.029,0.034,-0.04,-0.03,102.0,100.0,101.0,13.4,1505.2,328.1,-0.7,1.8,2470.215,13.28,0.052,139.6
2021-12-30T00:19:03,42.805,6.029,0.014,-0.042,-0.037,103.0,100.0,99.0,13.4,1505.2,330.8,-0.7,1.8,2470.141,13.28,0.044,161.6
2021-12-30T00:22:03,42.805,6.029,0.026,-0.046,-0.037,101.0,99.0,100.0,13.4,1505.2,329.1,-0.8,1.8,2470.105,13.28,0.052,150.5
2021-12-30T00:25:03,42.805,6.029,0.0,-0.018,-0.022,100.0,101.0,101.0,13.3,1505.2,327.1,-0.8,1.8,2470.188,13.28,0.018,180.0
2021-12-30T00:28:03,42.805,6.029,0.019,-0.023,-0.015,102.0,99.0,100.0,13.3,1505.2,325.1,-0.7,1.8,2470.174,13.28,0.029,140.4
2021-12-30T00:31:03,42.805,6.029,0.023,-0.031,-0.005,99.0,101.0,100.0,13.4,1505.2,328.9,-0.7,1.9,2470.142,13.28,0.038,143.4
2021-12-30T00:34:03,42.805,6.029,0.037,-0.021,-0.019,100.0,101.0,100.0,13.4,1505.2,327.2,-0.7,1.8,2470.124,13.28,0.042,119.6
2021-12-30T00:37:03,42.805,6.029,0.029,-0.018,-0.016,101.0,100.0,100.0,13.3,1505.2,324.0,-0.8,1.8,2470.082,13.28,0.034,121.8
2021-12-30T00:40:03,42.805,6.029,0.024,-0.019,-0.01,100.0,101.0,100.0,13.4,1505.2,331.9,-0.8,1.8,2470.061,13.28,0.03,128.4
2021-12-30T00:43:03,42.805,6.029,0.025,-0.022,-0.024,101.0,100.0,99.0,13.3,1505.2,328.6,-0.8,1.8,2470.023,13.28,0.033,131.3
2021-12-30T00:46:03,42.805,6.029,0.021,-0.023,-0.011,100.0,100.0,101.0,13.4,1505.2,329.9,-0.8,1.8,2470.03,13.28,0.031,137.6
2021-12-30T00:49:03,42.805,6.029,-0.006,-0.015,-0.014,101.0,101.0,100.0,13.4,1505.2,328.6,-0.8,1.8,2469.996,13.28,0.016,201.8
2021-12-30T00:52:03,42.805,6.029,-0.001,-0.018,-0.023,100.0,102.0,99.0,13.4,1505.2,331.1,-0.8,1.8,2469.984,13.28,0.018,183.2
2021-12-30T00:55:03,42.805,6.029,0.03,-0.023,-0.031,99.0,101.0,100.0,13.4,1505.2,324.0,-0.7,1.9,2470.024,13.28,0.037,127.5
2021-12-30T00:58:03,42.805,6.029,0.046,-0.024,-0.026,102.0,99.0,100.0,13.4,1505.2,326.8,-0.7,1.8,2470.025,13.28,0.051,117.6
2021-12-30T01:04:03,42.805,6.029,0.018,-0.032,0.007,101.0,101.0,101.0,13.4,1505.2,325.0,-0.8,1.8,2470.062,13.28,0.036,150.6
2021-12-30T01:07:03,42.805,6.029,0.039,-0.022,-0.007,104.0,100.0,100.0,13.4,1505.2,331.7,-0.8,1.8,2470.042,13.28,0.044,119.4
2021-12-30T01:10:03,42.805,6.029,0.026,-0.022,-0.005,101.0,99.0,101.0,13.4,1505.2,325.0,-0.8,1.8,2470.098,13.28,0.034,130.2
2021-12-30T01:13:03,42.805,6.029,0.034,-0.019,0.016,101.0,99.0,101.0,13.4,1505.2,326.9,-0.7,1.8,2470.113,13.28,0.038,119.2
2021-12-30T01:16:03,42.805,6.029,0.028,-0.015,-0.006,101.0,100.0,100.0,13.4,1505.2,327.4,-0.8,1.8,2470.121,13.28,0.031,118.2
2021-12-30T01:19:03,42.805,6.029,0.033,-0.017,-0.017,100.0,101.0,100.0,13.3,1505.2,327.5,-0.7,1.8,2470.17,13.28,0.037,117.3
2021-12-30T01:22:03,42.805,6.029,0.034,-0.024,-0.022,101.0,101.0,100.0,13.4,1505.2,328.0,-0.7,1.8,2470.212,13.28,0.041,125.2
2021-12-30T01:25:03,42.805,6.029,0.017,-0.007,0.016,101.0,101.0,101.0,13.3,1505.2,328.9,-0.8,1.8,2470.249,13.28,0.018,112.4
2021-12-30T01:28:03,42.805,6.029,0.045,-0.042,-0.003,101.0,101.0,101.0,13.4,1505.2,325.0,-0.7,1.8,2470.279,13.28,0.061,133.0
2021-12-30T01:31:03,42.805,6.029,0.022,-0.034,-0.038,98.0,102.0,101.0,13.4,1505.2,325.8,-0.8,1.8,2470.339,13.28,0.04,147.1
2021-12-30T01:34:03,42.805,6.029,0.027,-0.022,-0.035,100.0,102.0,100.0,13.4,1505.2,331.0,-0.8,1.8,2470.334,13.28,0.034,129.2
2021-12-30T01:37:03,42.805,6.029,0.022,-0.024,-0.011,101.0,101.0,100.0,13.3,1505.2,326.5,-0.8,1.9,2470.257,13.28,0.032,137.5
2021-12-30T01:40:03,42.805,6.029,0.019,-0.025,-0.033,101.0,100.0,99.0,13.4,1505.2,326.7,-0.7,1.8,2470.331,13.28,0.031,142.8
2021-12-30T01:43:03,42.805,6.029,0.009,-0.023,-0.008,100.0,101.0,100.0,13.4,1505.2,331.2,-0.8,1.8,2470.288,13.28,0.024,158.6
2021-12-30T01:46:03,42.805,6.029,0.0,-0.036,-0.053,100.0,101.0,101.0,13.3,1505.2,326.3,-0.8,1.8,2470.21,13.28,0.036,180.0
2021-12-30T01:49:03,42.805,6.029,0.008,-0.012,-0.018,101.0,100.0,100.0,13.4,1505.2,325.7,-0.8,1.8,2470.215,13.28,0.014,146.3
2021-12-30T01:52:03,42.805,6.029,0.027,-0.032,-0.009,101.0,100.0,100.0,13.4,1505.2,328.5,-0.8,1.8,2470.203,13.28,0.041,139.8
2021-12-30T01:55:03,42.805,6.029,0.024,-0.006,-0.012,101.0,100.0,100.0,13.3,1505.2,329.6,-0.8,1.8,2470.175,13.28,0.024,104.0
2021-12-30T01:58:03,42.805,6.029,0.018,-0.026,-0.026,103.0,101.0,100.0,13.3,1505.2,328.9,-0.8,1.9,2470.185,13.28,0.031,145.3
2021-12-30T02:04:03,42.805,6.029,0.028,-0.04,-0.039,100.0,100.0,100.0,13.3,1505.2,327.4,-0.7,1.8,2470.219,13.28,0.048,145.0
2021-12-30T02:07:03,42.805,6.029,0.017,-0.034,-0.035,100.0,101.0,99.0,13.4,1505.2,326.7,-0.8,1.8,2470.232,13.28,0.038,153.4
2021-12-30T02:10:03,42.805,6.029,0.019,-0.041,-0.036,101.0,100.0,100.0,13.3,1505.2,328.6,-0.8,1.8,2470.211,13.28,0.045,155.1
2021-12-30T02:13:03,42.805,6.029,0.02,-0.027,-0.023,100.0,101.0,99.0,13.4,1505.2,330.6,-0.8,1.8,2470.224,13.28,0.033,143.5
2021-12-30T02:16:03,42.805,6.029,-0.01,-0.019,-0.019,100.0,100.0,101.0,13.4,1505.2,328.7,-0.7,1.8,2470.248,13.28,0.021,207.8
2021-12-30T02:19:03,42.805,6.029,0.01,-0.023,-0.014,101.0,100.0,99.0,13.3,1505.2,326.8,-0.7,1.8,2470.283,13.28,0.025,156.5
2021-12-30T02:22:03,42.805,6.029,0.018,-0.03,-0.003,101.0,101.0,99.0,13.4,1505.2,329.8,-0.8,1.8,2470.246,13.28,0.034,149.0
2021-12-30T02:25:03,42.805,6.029,0.009,-0.029,-0.048,100.0,102.0,98.0,13.3,1505.2,324.2,-0.8,1.8,2470.251,13.28,0.03,162.8
2021-12-30T02:28:03,42.805,6.029,0.024,-0.034,-0.01,102.0,98.0,100.0,13.3,1505.2,326.8,-0.7,1.9,2470.239,13.28,0.041,144.8
2021-12-30T02:31:03,42.805,6.029,0.023,-0.008,0.001,98.0,99.0,101.0,13.3,1505.2,331.0,-0.7,1.8,2470.054,13.28,0.024,109.2
2021-12-30T02:34:03,42.805,6.029,-0.004,0.0,-0.027,100.0,99.0,100.0,13.4,1505.2,330.1,-0.8,1.8,2469.682,13.28,0.004,270.0
2021-12-30T02:37:03,42.805,6.029,-0.003,-0.018,-0.001,102.0,99.0,99.0,13.3,1505.2,326.4,-0.8,1.9,2469.423,13.28,0.018,189.5
2021-12-30T02:40:03,42.805,6.029,0.006,-0.015,-0.026,102.0,98.0,100.0,13.4,1505.2,328.1,-0.8,1.8,2469.533,13.28,0.016,158.2
2021-12-30T02:43:03,42.805,6.029,0.012,-0.014,-0.036,101.0,99.0,100.0,13.4,1505.2,326.8,-0.7,1.8,2469.618,13.28,0.018,139.4
2021-12-30T02:46:03,42.805,6.029,0.016,-0.024,0.009,102.0,101.0,100.0,13.3,1505.2,331.7,-0.7,1.8,2469.558,13.28,0.028,146.3
2021-12-30T02:49:03,42.805,6.029,0.025,-0.019,-0.002,101.0,100.0,100.0,13.4,1505.2,328.1,-0.7,1.8,2469.58,13.28,0.031,127.2
2021-12-30T02:52:03,42.805,6.029,0.032,-0.038,-0.038,100.0,102.0,100.0,13.4,1505.2,329.2,-0.8,1.8,2469.688,13.28,0.049,139.9
2021-12-30T02:55:03,42.805,6.029,0.021,-0.037,-0.046,104.0,102.0,100.0,13.3,1505.2,330.6,-0.7,1.8,2469.818,13.28,0.042,150.4
2021-12-30T02:58:03,42.805,6.029,0.027,-0.041,-0.057,101.0,100.0,100.0,13.4,1505.2,325.7,-0.7,1.8,2469.832,13.28,0.049,146.6
2021-12-30T03:04:03,42.805,6.029,-0.001,-0.031,-0.031,100.0,101.0,100.0,13.3,1505.2,329.6,-0.7,1.8,2469.829,13.28,0.031,181.8
2021-12-30T03:07:03,42.805,6.029,0.017,-0.031,-0.004,101.0,100.0,100.0,13.4,1505.2,331.1,-0.8,1.8,2469.59,13.28,0.035,151.3
2021-12-30T03:10:03,42.805,6.029,0.0,-0.031,-0.03,101.0,100.0,100.0,13.4,1505.2,327.4,-0.8,1.8,2469.599,13.28,0.03,180.0
2021-12-30T03:13:03,42.805,6.029,0.02,-0.033,-0.03,100.0,100.0,100.0,13.4,1505.2,328.1,-0.8,1.8,2469.658,13.28,0.038,148.8
2021-12-30T03:16:03,42.805,6.029,0.002,-0.031,-0.004,100.0,101.0,100.0,13.4,1505.2,325.1,-0.8,1.8,2469.79,13.28,0.031,176.3
2021-12-30T03:19:03,42.805,6.029,0.025,-0.024,-0.005,100.0,100.0,100.0,13.4,1505.2,330.3,-0.8,1.8,2469.891,13.28,0.034,133.8
2021-12-30T03:22:03,42.805,6.029,0.021,-0.024,-0.003,101.0,101.0,100.0,13.4,1505.2,330.0,-0.7,1.8,2469.873,13.28,0.031,138.8
2021-12-30T03:25:03,42.805,6.029,0.012,-0.011,0.006,100.0,102.0,100.0,13.3,1505.2,326.6,-0.7,1.8,2469.642,13.28,0.016,132.5
2021-12-30T03:28:03,42.805,6.029,-0.005,-0.021,-0.027,101.0,100.0,100.0,13.4,1505.2,329.1,-0.7,1.8,2469.536,13.28,0.021,193.4
2021-12-30T03:31:03,42.805,6.029,0.021,-0.029,-0.028,100.0,100.0,99.0,13.3,1505.2,329.3,-0.7,1.8,2469.565,13.28,0.035,144.1
2021-12-30T03:34:03,42.805,6.029,0.023,-0.028,-0.004,100.0,100.0,101.0,13.4,1505.2,329.6,-0.8,1.8,2469.599,13.28,0.036,140.6
2021-12-30T03:37:03,42.805,6.029,0.028,-0.023,0.009,100.0,101.0,100.0,13.4,1505.2,331.1,-0.8,1.8,2469.651,13.28,0.036,129.4
2021-12-30T03:40:03,42.805,6.029,0.02,-0.039,-0.042,101.0,100.0,100.0,13.3,1505.2,326.8,-0.7,1.8,2469.683,13.28,0.043,152.9
2021-12-30T03:43:03,42.805,6.029,0.018,-0.033,-0.041,101.0,99.0,99.0,13.3,1505.2,324.5,-0.7,1.8,2469.54,13.28,0.037,151.4
2021-12-30T03:46:03,42.805,6.029,0.003,-0.022,-0.012,100.0,102.0,99.0,13.4,1505.2,329.0,-0.7,1.8,2469.6,13.28,0.022,172.2
2021-12-30T03:49:03,42.805,6.029,0.004,-0.032,-0.036,99.0,99.0,101.0,13.4,1505.2,330.2,-0.7,1.8,2469.544,13.28,0.032,172.9
2021-12-30T03:52:03,42.805,6.029,0.012,-0.041,-0.062,100.0,101.0,101.0,13.4,1505.2,324.5,-0.7,1.8,2469.55,13.28,0.042,163.7
2021-12-30T03:55:03,42.805,6.029,0.003,-0.026,-0.017,99.0,100.0,101.0,13.3,1505.2,327.7,-0.7,1.8,2469.646,13.28,0.026,173.4
2021-12-30T03:58:03,42.805,6.029,0.006,-0.018,-0.01,102.0,99.0,100.0,13.3,1505.2,330.9,-0.8,1.8,2469.695,13.28,0.018,161.6
2021-12-30T04:04:03,42.805,6.029,0.024,-0.024,-0.022,101.0,100.0,101.0,13.3,1505.2,329.0,-0.8,1.8,2469.793,13.28,0.033,135.0
2021-12-30T04:07:03,42.805,6.029,0.024,-0.034,-0.029,101.0,99.0,100.0,13.4,1505.2,326.0,-0.8,1.8,2469.657,13.28,0.041,144.8
2021-12-30T04:10:03,42.805,6.029,0.015,-0.025,-0.019,101.0,100.0,101.0,13.4,1505.2,329.0,-0.8,1.8,2469.822,13.28,0.029,149.0
2021-12-30T04:13:03,42.805,6.029,0.014,-0.028,-0.044,103.0,100.0,99.0,13.4,1505.2,331.1,-0.7,1.9,2469.756,13.28,0.031,153.4
2021-12-30T04:16:03,42.805,6.029,0.011,-0.036,-0.023,101.0,101.0,99.0,13.4,1505.2,331.8,-0.8,1.8,2469.652,13.28,0.037,163.0
2021-12-30T04:19:03,42.805,6.029,-0.01,-0.011,-0.029,103.0,101.0,100.0,13.4,1505.2,328.8,-0.8,1.8,2469.555,13.28,0.014,222.3
2021-12-30T04:22:03,42.805,6.029,0.026,-0.028,-0.04,99.0,101.0,101.0,13.4,1505.2,329.0,-0.7,1.8,2469.502,13.28,0.038,137.1
2021-12-30T04:25:03,42.805,6.029,0.014,-0.031,-0.009,100.0,100.0,100.0,13.4,1505.2,328.2,-0.8,1.8,2469.499,13.28,0.034,155.7
2021-12-30T04:28:03,42.805,6.029,0.027,-0.034,-0.018,101.0,101.0,100.0,13.3,1505.2,328.7,-0.8,1.8,2469.52,13.28,0.043,141.5
2021-12-30T04:31:03,42.805,6.029,0.012,-0.037,-0.033,100.0,100.0,102.0,13.4,1505.2,329.7,-0.7,1.8,2469.52,13.28,0.038,162.0
2021-12-30T04:34:03,42.805,6.029,0.019,-0.008,-0.004,103.0,99.0,100.0,13.3,1505.2,327.8,-0.8,1.8,2469.508,13.28,0.02,112.8
2021-12-30T04:37:03,42.805,6.029,0.022,-0.005,0.014,101.0,101.0,99.0,13.3,1505.2,327.1,-0.7,1.9,2469.576,13.28,0.022,102.8
2021-12-30T04:40:03,42.805,6.029,0.017,-0.018,-0.034,99.0,102.0,100.0,13.4,1505.2,331.9,-0.7,1.8,2469.609,13.28,0.024,136.6
2021-12-30T04:43:03,42.805,6.029,0.004,-0.016,-0.029,100.0,101.0,100.0,13.4,1505.2,331.1,-0.8,1.9,2469.599,13.28,0.016,166.0
2021-12-30T04:46:03,42.805,6.029,0.016,-0.043,-0.057,101.0,100.0,100.0,13.3,1505.2,326.2,-0.8,1.8,2469.631,13.28,0.045,159.6
2021-12-30T04:49:03,42.805,6.029,0.0,-0.029,-0.021,102.0,101.0,99.0,13.4,1505.2,329.9,-0.7,1.9,2469.601,13.28,0.028,180.0
2021-12-30T04:52:03,42.805,6.029,0.005,-0.03,-0.036,103.0,102.0,99.0,13.4,1505.2,329.5,-0.8,1.9,2469.625,13.28,0.03,170.5
2021-12-30T04:55:03,42.805,6.029,0.037,-0.035,-0.022,100.0,101.0,100.0,13.3,1505.2,325.3,-0.7,1.8,2469.63,13.28,0.05,133.4
2021-12-30T04:58:03,42.805,6.029,0.015,-0.014,-0.016,102.0,99.0,101.0,13.4,1505.2,328.5,-0.8,1.8,2469.655,13.28,0.02,133.0
2021-12-30T05:04:03,42.805,6.029,0.024,-0.035,-0.033,101.0,101.0,100.0,13.4,1505.2,324.6,-0.8,1.8,2469.717,13.28,0.042,145.6
2021-12-30T05:07:03,42.805,6.029,0.017,-0.005,0.018,101.0,100.0,99.0,13.4,1505.2,326.6,-0.8,1.8,2469.758,13.28,0.017,106.4
2021-12-30T05:10:03,42.805,6.029,0.03,-0.023,-0.021,101.0,101.0,100.0,13.4,1505.2,328.9,-0.8,1.8,2469.781,13.28,0.037,127.5
2021-12-30T05:13:03,42.805,6.029,0.013,-0.044,-0.041,100.0,101.0,101.0,13.4,1505.2,328.5,-0.8,1.8,2469.76,13.28,0.045,163.5
2021-12-30T05:16:03,42.805,6.029,0.01,-0.016,-0.017,100.0,100.0,100.0,13.4,1505.2,324.2,-0.8,1.8,2469.716,13.28,0.018,148.0
2021-12-30T05:19:03,42.805,6.029,0.048,-0.039,-0.023,100.0,101.0,100.0,13.4,1505.2,329.8,-0.7,1.8,2469.672,13.28,0.061,129.1
2021-12-30T05:22:03,42.805,6.029,0.015,-0.024,-0.008,100.0,101.0,100.0,13.4,1505.2,331.1,-0.8,1.8,2469.678,13.28,0.028,148.0
2021-12-30T05:25:03,42.805,6.029,-0.01,-0.016,-0.011,100.0,101.0,101.0,13.3,1505.2,325.3,-0.8,1.8,2469.652,13.28,0.018,212.0
2021-12-30T05:28:03,42.805,6.029,-0.004,-0.002,0.0,102.0,99.0,100.0,13.3,1505.2,329.2,-0.7,1.8,2469.669,13.28,0.004,243.4
2021-12-30T05:31:03,42.805,6.029,-0.006,-0.013,-0.032,101.0,100.0,100.0,13.3,1505.2,327.9,-0.7,1.8,2469.751,13.28,0.014,204.8
2021-12-30T05:34:03,42.805,6.029,0.03,-0.027,0.0,101.0,100.0,99.0,13.4,1505.2,327.9,-0.8,1.8,2469.655,13.28,0.04,132.0
2021-12-30T05:37:03,42.805,6.029,0.005,-0.03,-0.028,103.0,101.0,98.0,13.4,1505.2,331.4,-0.8,1.8,2469.687,13.28,0.03,170.5
2021-12-30T05:40:03,42.805,6.029,0.041,-0.033,-0.016,100.0,101.0,99.0,13.4,1505.2,324.0,-0.8,1.8,2469.695,13.28,0.052,128.8
2021-12-30T05:43:03,42.805,6.029,0.02,-0.016,-0.017,100.0,100.0,100.0,13.4,1505.2,328.5,-0.8,1.9,2469.704,13.28,0.025,128.7
2021-12-30T05:46:03,42.805,6.029,0.006,-0.037,-0.018,101.0,100.0,99.0,13.4,1505.2,330.5,-0.8,1.8,2469.693,13.28,0.037,170.8
2021-12-30T05:49:03,42.805,6.029,0.01,-0.007,-0.031,101.0,99.0,100.0,13.3,1505.2,329.9,-0.8,1.8,2469.734,13.28,0.012,125.0
2021-12-30T05:52:03,42.805,6.029,0.024,-0.043,-0.047,102.0,99.0,99.0,13.3,1505.2,331.7,-0.7,1.8,2469.626,13.28,0.049,150.8
2021-12-30T05:55:03,42.805,6.029,0.028,-0.027,-0.014,100.0,102.0,100.0,13.4,1505.2,329.0,-0.7,1.8,2469.679,13.28,0.038,134.0
2021-12-30T05:58:03,42.805,6.029,0.027,-0.03,-0.013,99.0,101.0,101.0,13.4,1505.2,326.3,-0.7,1.8,2469.683,13.28,0.04,138.0
2021-12-30T06:04:03,42.805,6.029,0.058,-0.029,-0.001,101.0,101.0,100.0,13.4,1505.2,324.9,-0.8,1.8,2469.679,13.28,0.064,116.6
2021-12-30T06:07:03,42.805,6.029,0.02,-0.028,-0.037,100.0,100.0,100.0,13.4,1505.2,329.7,-0.7,1.8,2469.7,13.28,0.034,144.5
2021-12-30T06:10:03,42.805,6.029,0.0,-0.01,-0.007,101.0,100.0,99.0,13.4,1505.2,330.3,-0.8,1.9,2469.701,13.28,0.01,180.0
2021-12-30T06:13:03,42.805,6.029,0.019,-0.021,-0.016,102.0,100.0,99.0,13.4,1505.2,325.8,-0.8,1.8,2469.691,13.28,0.028,137.9
2021-12-30T06:16:03,42.805,6.029,0.014,-0.016,-0.033,100.0,102.0,100.0,13.3,1505.2,325.7,-0.8,1.8,2469.69,13.28,0.021,138.8
2021-12-30T06:19:03,42.805,6.029,0.016,0.009,0.04,100.0,100.0,100.0,13.4,1505.2,331.8,-0.7,1.9,2469.656,13.28,0.018,60.6
2021-12-30T06:22:03,42.805,6.029,0.024,-0.022,0.003,101.0,100.0,101.0,13.4,1505.2,328.8,-0.7,1.8,2469.623,13.28,0.032,132.5
2021-12-30T06:25:03,42.805,6.029,0.025,-0.025,-0.016,100.0,100.0,100.0,13.4,1505.2,331.4,-0.7,1.8,2469.551,13.28,0.035,135.0
2021-12-30T06:28:03,42.805,6.029,0.023,-0.029,-0.02,99.0,102.0,99.0,13.4,1505.2,329.9,-0.8,1.8,2469.54,13.28,0.037,141.6
2021-12-30T06:31:03,42.805,6.029,0.007,-0.016,-0.008,98.0,101.0,101.0,13.4,1505.2,327.5,-0.8,1.8,2469.545,13.28,0.017,156.4
2021-12-30T06:34:03,42.805,6.029,0.015,-0.026,0.002,99.0,102.0,101.0,13.4,1505.2,327.0,-0.8,1.8,2469.574,13.28,0.03,150.0
2021-12-30T06:37:03,42.805,6.029,0.022,-0.032,-0.023,100.0,99.0,100.0,13.4,1505.2,331.6,-0.8,1.8,2469.515,13.28,0.038,145.5
2021-12-30T06:40:03,42.805,6.029,0.038,-0.016,-0.015,101.0,101.0,100.0,13.3,1505.2,327.0,-0.8,1.8,2469.543,13.28,0.041,112.8
2021-12-30T06:43:03,42.805,6.029,0.024,-0.019,-0.015,100.0,102.0,100.0,13.4,1505.2,331.1,-0.7,1.8,2469.536,13.28,0.03,128.4
2021-12-30T06:46:03,42.805,6.029,0.018,-0.04,-0.041,101.0,100.0,100.0,13.4,1505.2,328.8,-0.8,1.9,2469.495,13.28,0.043,155.8
2021-12-30T06:49:03,42.805,6.029,0.023,0.0,-0.007,100.0,101.0,100.0,13.4,1505.2,331.1,-0.8,1.8,2469.479,13.28,0.023,90.0
2021-12-30T06:52:03,42.805,6.029,0.022,-0.057,-0.047,100.0,100.0,99.0,13.3,1505.2,329.7,-0.8,1.8,2469.475,13.28,0.061,158.9
2021-12-30T06:55:03,42.805,6.029,0.0,-0.015,-0.022,100.0,100.0,100.0,13.3,1505.2,325.1,-0.7,1.8,2469.447,13.28,0.015,180.0
2021-12-30T06:58:03,42.805,6.029,0.023,-0.038,-0.018,101.0,100.0,99.0,13.4,1505.2,329.5,-0.7,1.8,2469.481,13.28,0.044,148.8
2021-12-30T07:04:03,42.805,6.029,0.009,-0.029,-0.026,100.0,100.0,100.0,13.4,1505.2,329.8,-0.7,1.8,2469.439,13.28,0.03,162.8
2021-12-30T07:07:03,42.805,6.029,0.019,-0.029,-0.033,100.0,100.0,101.0,13.4,1505.2,331.8,-0.7,1.8,2469.475,13.28,0.034,146.8
2021-12-30T07:10:03,42.805,6.029,0.01,-0.037,-0.054,101.0,101.0,99.0,13.4,1505.2,326.5,-0.7,1.8,2469.426,13.28,0.038,164.9
2021-12-30T07:13:03,42.805,6.029,0.029,-0.035,0.001,100.0,100.0,100.0,13.4,1505.2,326.6,-0.8,1.8,2469.428,13.28,0.045,140.4
2021-12-30T07:16:03,42.805,6.029,0.034,-0.04,-0.044,101.0,102.0,100.0,13.4,1505.2,330.6,-0.7,1.8,2469.36,13.28,0.052,139.6
2021-12-30T07:19:03,42.805,6.029,0.01,-0.038,-0.039,101.0,100.0,100.0,13.4,1505.2,326.6,-0.7,1.8,2469.362,13.28,0.039,165.3
2021-12-30T07:22:03,42.805,6.029,0.013,-0.026,-0.017,101.0,99.0,100.0,13.4,1505.2,328.0,-0.7,1.8,2469.375,13.28,0.029,153.4
2021-12-30T07:25:03,42.805,6.029,0.052,-0.044,-0.014,102.0,99.0,100.0,13.4,1505.2,327.2,-0.8,1.8,2469.375,13.28,0.068,130.2
2021-12-30T07:28:03,42.805,6.029,0.05,-0.033,-0.012,100.0,99.0,101.0,13.4,1505.2,331.4,-0.8,1.8,2469.393,13.28,0.059,123.4
2021-12-30T07:31:03,42.805,6.029,0.051,-0.051,-0.028,100.0,100.0,100.0,13.3,1505.2,323.7,-0.8,1.8,2469.349,13.28,0.072,135.0
2021-12-30T07:34:03,42.805,6.029,0.013,-0.037,-0.046,100.0,101.0,100.0,13.4,1505.2,327.1,-0.8,1.8,2469.404,13.28,0.039,160.6
2021-12-30T07:37:03,42.805,6.029,0.024,-0.052,-0.037,101.0,100.0,100.0,13.4,1505.2,330.5,-0.8,1.8,2469.297,13.28,0.057,155.2
2021-12-30T07:40:03,42.805,6.029,0.002,-0.018,-0.011,101.0,102.0,99.0,13.4,1505.2,330.2,-0.8,1.8,2469.322,13.28,0.018,173.7
2021-12-30T07:43:03,42.805,6.029,0.031,-0.023,-0.014,101.0,98.0,100.0,13.4,1505.2,325.9,-0.8,1.8,2469.257,13.28,0.038,126.6
2021-12-30T07:46:03,42.805,6.029,0.008,-0.036,-0.033,100.0,100.0,101.0,13.3,1505.2,329.8,-0.7,1.8,2469.307,13.28,0.036,167.5
2021-12-30T07:49:03,42.805,6.029,0.03,-0.034,-0.018,101.0,101.0,100.0,13.4,1505.2,328.2,-0.7,1.8,2469.281,13.28,0.045,138.6
2021-12-30T07:52:03,42.805,6.029,0.012,-0.027,-0.005,100.0,102.0,102.0,13.3,1505.2,326.2,-0.8,1.8,2469.353,13.28,0.029,156.0
2021-12-30T07:55:03,42.805,6.029,0.027,-0.027,-0.027,100.0,102.0,100.0,13.4,1505.2,327.9,-0.8,1.8,2469.452,13.28,0.038,135.0
2021-12-30T07:58:03,42.805,6.029,0.021,-0.049,-0.029,102.0,102.0,100.0,13.4,1505.2,331.8,-0.8,1.8,2469.454,13.28,0.053,156.8
2021-12-30T08:04:03,42.805,6.029,0.022,-0.051,-0.056,101.0,101.0,100.0,13.3,1505.2,325.4,-0.8,1.8,2469.467,13.28,0.055,156.7
2021-12-30T08:07:03,42.805,6.029,0.025,-0.026,-0.031,101.0,101.0,100.0,13.4,1505.2,330.7,-0.8,1.8,2469.529,13.28,0.036,136.1
2021-12-30T08:10:03,42.805,6.029,0.003,-0.023,-0.03,101.0,100.0,100.0,13.4,1505.2,329.5,-0.7,1.8,2469.547,13.28,0.023,172.6
2021-12-30T08:13:03,42.805,6.029,0.011,-0.035,-0.039,100.0,101.0,100.0,13.4,1505.2,331.1,-0.8,1.8,2469.582,13.28,0.036,162.6
2021-12-30T08:16:03,42.805,6.029,0.017,-0.046,-0.03,100.0,100.0,100.0,13.4,1505.2,327.6,-0.8,1.8,2469.525,13.28,0.049,159.7
2021-12-30T08:19:03,42.805,6.029,0.055,-0.034,-0.009,100.0,103.0,100.0,13.4,1505.2,327.8,-0.8,1.8,2469.555,13.28,0.064,121.7
2021-12-30T08:22:03,42.805,6.029,0.038,-0.037,-0.065,102.0,98.0,101.0,13.4,1505.2,326.3,-0.8,1.8,2469.51,13.28,0.053,134.2
2021-12-30T08:25:03,42.805,6.029,0.041,-0.048,-0.027,101.0,100.0,99.0,13.4,1505.2,326.3,-0.7,1.8,2469.559,13.28,0.063,139.5
2021-12-30T08:28:03,42.805,6.029,0.002,-0.047,-0.055,100.0,102.0,99.0,13.4,1505.2,329.9,-0.8,1.8,2469.6,13.28,0.047,177.6
2021-12-30T08:31:03,42.805,6.029,0.022,-0.046,-0.036,100.0,102.0,99.0,13.3,1505.2,331.4,-0.7,1.8,2469.579,13.28,0.05,154.4
2021-12-30T08:34:03,42.805,6.029,0.04,-0.026,-0.011,100.0,100.0,99.0,13.3,1505.2,323.8,-0.8,1.8,2469.57,13.28,0.047,123.0
2021-12-30T08:37:03,42.805,6.029,0.022,-0.042,-0.034,99.0,101.0,100.0,13.3,1505.2,331.8,-0.8,1.9,2469.576,13.28,0.047,152.4
2021-12-30T08:40:03,42.805,6.029,0.017,-0.021,-0.036,100.0,101.0,100.0,13.4,1505.2,323.8,-0.8,1.9,2469.594,13.28,0.027,141.0
2021-12-30T08:43:03,42.805,6.029,0.017,-0.023,-0.017,100.0,102.0,99.0,13.4,1505.2,327.4,-0.7,1.8,2469.608,13.28,0.028,143.5
2021-12-30T08:46:03,42.805,6.029,0.007,-0.023,-0.023,100.0,101.0,99.0,13.4,1505.2,324.3,-0.8,1.8,2469.569,13.28,0.024,163.1
2021-12-30T08:49:03,42.805,6.029,0.026,-0.025,-0.002,101.0,101.0,99.0,13.4,1505.2,330.1,-0.8,1.8,2469.573,13.28,0.036,133.9
2021-12-30T08:52:03,42.805,6.029,0.015,-0.04,-0.028,100.0,99.0,100.0,13.4,1505.2,329.8,-0.7,1.8,2469.547,13.28,0.042,159.4
2021-12-30T08:55:03,42.805,6.029,0.009,-0.028,-0.052,100.0,99.0,100.0,13.4,1505.2,326.0,-0.7,1.9,2469.541,13.28,0.029,162.2
2021-12-30T08:58:03,42.805,6.029,0.024,-0.026,-0.011,101.0,100.0,100.0,13.3,1505.2,325.4,-0.8,1.8,2469.574,13.28,0.035,137.3
2021-12-30T09:04:03,42.805,6.029,0.029,-0.018,-0.038,100.0,100.0,100.0,13.4,1505.2,329.0,-0.8,1.8,2469.531,13.28,0.034,121.8
2021-12-30T09:07:03,42.805,6.029,0.031,-0.032,-0.025,99.0,102.0,100.0,13.4,1505.2,324.8,-0.8,1.8,2469.505,13.28,0.044,135.9
2021-12-30T09:10:03,42.805,6.029,0.009,-0.036,-0.036,100.0,101.0,102.0,13.4,1505.2,327.3,-0.7,1.8,2469.462,13.28,0.037,166.0
2021-12-30T09:13:03,42.805,6.029,0.027,-0.031,-0.004,101.0,101.0,100.0,13.4,1505.2,324.5,-0.7,1.8,2469.467,13.28,0.041,138.9
2021-12-30T09:16:03,42.805,6.029,0.043,-0.042,-0.008,101.0,101.0,100.0,13.4,1505.2,327.0,-0.7,1.8,2469.445,13.28,0.06,134.3
2021-12-30T09:19:03,42.805,6.029,0.013,-0.04,-0.042,99.0,101.0,101.0,13.4,1505.2,329.9,-0.7,1.8,2469.399,13.28,0.042,162.0
2021-12-30T09:22:03,42.805,6.029,0.004,-0.039,-0.048,100.0,100.0,101.0,13.3,1505.2,327.7,-0.7,1.8,2469.391,13.28,0.039,174.1
2021-12-30T09:25:03,42.805,6.029,0.005,-0.046,-0.044,99.0,101.0,100.0,13.3,1505.2,331.1,-0.7,1.8,2469.415,13.28,0.046,173.8
2021-12-30T09:28:03,42.805,6.029,0.019,-0.013,-0.028,101.0,101.0,100.0,13.4,1505.2,325.2,-0.7,1.8,2469.404,13.28,0.023,124.4
2021-12-30T09:31:03,42.805,6.029,0.037,-0.046,-0.04,101.0,101.0,100.0,13.3,1505.2,328.8,-0.7,1.8,2469.449,13.28,0.059,141.2
2021-12-30T09:34:03,42.805,6.029,0.018,-0.036,-0.048,101.0,99.0,100.0,13.4,1505.2,331.7,-0.7,1.8,2469.403,13.28,0.04,153.4
2021-12-30T09:37:03,42.805,6.029,0.019,-0.051,-0.036,101.0,100.0,99.0,13.4,1505.2,327.2,-0.7,1.8,2469.38,13.28,0.054,159.6
2021-12-30T09:40:03,42.805,6.029,0.009,-0.044,-0.031,99.0,101.0,100.0,13.4,1505.2,326.2,-0.8,1.8,2469.406,13.28,0.044,168.4
2021-12-30T09:43:03,42.805,6.029,0.023,-0.055,-0.029,99.0,101.0,99.0,13.4,1505.2,324.9,-0.8,1.8,2469.407,13.28,0.059,157.3
2021-12-30T09:46:03,42.805,6.029,0.007,-0.037,-0.004,100.0,99.0,100.0,13.4,1505.2,329.3,-0.8,1.8,2469.345,13.28,0.037,169.3
2021-12-30T09:49:03,42.805,6.029,0.037,-0.049,0.002,102.0,100.0,99.0,13.4,1505.2,328.4,-0.7,1.8,2469.36,13.28,0.061,142.9
2021-12-30T09:52:03,42.805,6.029,0.003,-0.018,-0.008,100.0,101.0,100.0,13.4,1505.2,325.3,-0.7,1.8,2469.35,13.28,0.018,170.5
2021-12-30T09:55:03,42.805,6.029,0.03,-0.013,-0.019,100.0,100.0,99.0,13.3,1505.2,329.7,-0.8,1.8,2469.371,13.28,0.032,113.4